Location: Trebic
(49.2170°N, 15.8830°E)
Time: 05:44:01
(UTC+02:00)

Transit 4A - Pass Details

Date: 29 August 2019
Orbit: 865 x 980 km, 66.8° (Epoch: 21 September)

Event Time Altitude Azimuth Distance (km) Brightness Sun altitude
Rises 21:01:48 0° 287° (WNW) 3,680 12.8 -12.2°
Reaches altitude 10° 21:05:25 10° 307° (NW) 2,725 11.8 -12.7°
Maximum altitude 21:09:28 17° 347° (NNW) 2,229 10.5 -13.3°
Drops below altitude 10° 21:13:29 10° 27° (NNE) 2,691 10.4 -13.8°
Sets 21:17:02 0° 47° (NE) 3,616 10.8 -14.3°
